Regional Weather Roundup
Issued by NWS

Home | Current Version | Previous Version | Graphics & Text | Print | Product List | Glossary On
Versions: 1 2 3 4 5 6 7 8 9 10 11 12 13 14 15 16 17 18 19 20 21 22 23 24 25 26 27 28 29 30 31 32 33 34 35 36 37 38 39 40 41 42 43 44 45 46 47 48 49
000
ASUS43 KMPX 050710
RWRMN
WEATHER ROUNDUP FOR MINNESOTA
NATIONAL WEATHER SERVICE TWIN CITIES/CHANHASSEN MN
200 AM CDT SAT SEP 05 2015


NOTE: "FAIR" INDICATES FEW OR NO CLOUDS BELOW 12,000 FEET WITH NO
SIGNIFICANT WEATHER AND/OR OBSTRUCTIONS TO VISIBILITY. N/A MEANS
CURRENT SKY AND/OR WEATHER CONDITIONS ARE NOT AVAILABLE.

MNZ060>063-068>070-050800-
   Twin Cities Metro

CITY           SKY/WX    TMP DP  RH WIND       PRES   REMARKS
TWIN CITIES    MOCLDY    76  70  82 SE6       29.94S
ST PAUL        MOCLDY    76  71  85 SE8       29.94S
CRYSTAL        MOCLDY    79  69  71 SE8       29.92S
BLAINE         MOCLDY    77  72  83 SE5       29.94S
LAKEVILLE      MOCLDY    73  72  94 SE5       29.95S
EDEN PRAIRIE   PTCLDY    78  70  76 E8        29.93R
SOUTH ST PAUL  MOCLDY    76  70  80 SE3       29.95S
LAKE ELMO      FAIR      75  72  88 CALM      29.97S
$$
MNZ001>005-007-008-013>017-022>024-027-028-050800-
   Northwest Minnesota

CITY           SKY/WX    TMP DP  RH WIND       PRES   REMARKS
BEMIDJI        MOCLDY    70  68  94 SE9       29.90F
HALLOCK        FOG       64  63  94 N9        29.88S VSB 1
ROSEAU         HAZE      64  57  77 S3        29.90S VSB 1/2
WARROAD        CLOUDY    66  63  88 S3        29.91R
THIEF RVR FALL MOCLDY    70  68  94 NE9       29.88F
CROOKSTON      CLEAR     70  68  94 E7        29.87S
FOSSTON        MOCLDY    70  66  88 CALM      29.89S
DETROIT LAKES  MOCLDY    73  68  83 SE7       29.89F
MOORHEAD       CLEAR     72  68  88 SE5       29.85S
PARK RAPIDS    MOCLDY    74  71  91 SE8       29.91S
MAHNOMEN       CLOUDY    73  67  82 SE5       29.87S
$$
MNZ006-009>011-018-025>026-050800-
   North Central Minnesota

CITY           SKY/WX    TMP DP  RH WIND       PRES   REMARKS
BAUDETTE       CLOUDY    72  69  90 CALM      29.91R
FLAG ISLAND    CLOUDY    68  66  94 NW3       29.88S FOG
INTL FALLS     RAIN      67  65  93 VRB7      29.91F
WASKISH        LGT RAIN  70  66  88 CALM      29.91S
BIG FORK       CLOUDY    66  64  94 CALM      29.94S
LONGVILLE      MOCLDY    72  72 100 E3        29.93F
GRAND RAPIDS     N/A     66  64  94 SE6       29.96F
CRANE LAKE     CLOUDY    64  63  94 SE1       29.99S
ORR            CLOUDY    64  63  94 CALM      29.93F
COOK           CLOUDY    64  64 100 E3        29.96F
WALKER         CLOUDY    69  68  97 E3        29.91F
$$
MNZ012-019>021-037-050800-
   Northeast Minnesota

CITY           SKY/WX    TMP DP  RH WIND       PRES   REMARKS
DULUTH         MOCLDY    65  61  87 SE10      29.98F
ELY            TSTM      64  63  94 SE5       30.02F
HIBBING        RAIN      65  64  97 E8        29.98F
EVELETH        TSTM      64  64 100 NE6       30.00F
DULUTH HARBOR  PTCLDY    61  57  88 NE3       29.98F
TWO HARBORS    MOCLDY    70  64  83 NE5       29.97F
SILVER BAY     MOCLDY    66  61  82 CALM      29.98F
GRAND MARAIS     N/A     63  58  83 CALM      30.01S
G MARAIS ARPRT PTCLDY    63  57  82 SE3       30.06S
$$
MNZ029>031-032-039>041-046>048-054>057-064-050800-
   West Central Minnesota

CITY           SKY/WX    TMP DP  RH WIND       PRES   REMARKS
FERGUS FALLS   MOCLDY    73  70  88 SE7       29.85S
WHEATON        MOCLDY    70  66  88 SE5       29.85S
MORRIS         PTCLDY    73  72  94 SE6       29.85S
ALEXANDRIA     LGT RAIN  72  70  93 SE8       29.90F
ELBOW LAKE     MOCLDY    73  70  91 SE9       29.86S
WADENA         CLOUDY    72  70  94 SE7       29.89F
GLENWOOD       MOCLDY    75  70  83 S16G22    29.89F
APPLETON       PTCLDY    77  70  78 S8        29.84S
BENSON         MOCLDY    73  70  88 S6        29.86F
ORTONVILLE     CLEAR     73  70  88 SE5       29.84S
MADISON        CLEAR     73  70  88 S6        29.84F
WILLMAR        LGT RAIN  77  72  83 SE10      29.90S
$$
MNZ033>034-036-042>043-049>051-058-059-050800-
   Central Minnesota

CITY           SKY/WX    TMP DP  RH WIND       PRES   REMARKS
ST CLOUD       MOCLDY    73  67  81 SE7       29.92S
SAUK CENTRE    CLOUDY    72  69  90 SE10      29.90F
PAYNESVILLE    CLOUDY    75  70  83 E7        29.91S
AITKIN         MOCLDY    73  68  83 CALM      29.94S
PINE RIVER     CLOUDY    73  73 100 SE7       29.95F
BRAINERD       CLOUDY    73  72  96 CALM      29.93S
STAPLES        LGT RAIN  72  66  83 SE3       29.92R
LONG PRAIRIE   TSTM      70  68  94 E3        29.92S
LITTLE FALLS   MOCLDY    73  66  78 S3        29.91F
LITCHFIELD     PTCLDY    79  73  83 S7        29.92S
BUFFALO        PTCLDY    76  68  76 SE5       29.94S
MAPLE LAKE     PTCLDY    74  70  86 S5        29.93S
$$
MNZ037-044-045-052-053-050800-
   East Central Minnesota

CITY           SKY/WX    TMP DP  RH WIND       PRES   REMARKS
PRINCETON      MOCLDY    75  70  83 CALM      29.93F
MORA           MOCLDY    72  70  94 E3        29.97S
CAMBRIDGE      CLOUDY    77  66  69 SE5       29.93S
RUSH CITY      MOCLDY    73  71  91 SE5       29.96S
MOOSE LAKE     MOCLDY    61  59  94 CALM      29.96S
HINCKLEY       FAIR      73  72  94 CALM      29.96S
CLOQUET        MOCLDY    63  59  88 E5        29.98S
MCGREGOR       CLOUDY    68  66  94 CALM      29.96S
$$
MNZ071>073-080-081-089-090-097-098-050800-
   Southwest Minnesota

CITY           SKY/WX    TMP DP  RH WIND       PRES   REMARKS
MONTEVIDEO     MOCLDY    75  72  88 S10       29.87F
GRANITE FALLS  MOCLDY    75  72  88 SE7       29.88F
CANBY          CLEAR     73  68  86 SE3       29.86S
MARSHALL       PTCLDY    75  66  73 S14       29.88S
REDWOOD FALLS  MOCLDY    76  71  85 SE13      29.88F
OLIVIA         LGT RAIN  73  68  83 SE10G17   29.89S
PIPESTONE      CLEAR     75  68  78 S12       29.90S
WINDOM         PTCLDY    75  70  83 S7G17     29.93S
WORTHINGTON    PTCLDY    73  66  78 S10       29.92S
JACKSON        MOCLDY    75  70  83 S9        29.95S
TRACY          CLEAR     76  70  81 S13       29.89S
SLAYTON        CLEAR     73  70  91 S8        29.92S
$$
MNZ065>067-074>077-082>085-091>093-050800-
   South Central Minnesota

CITY           SKY/WX    TMP DP  RH WIND       PRES   REMARKS
MANKATO        CLEAR     75  72  88 SE10      29.94S
NEW ULM        PTCLDY    73  72  94 SE8       29.92S
ST JAMES       PTCLDY    73  72  94 SE7       29.93S
FAIRMONT       CLEAR     73  66  78 S9        29.94S
GLENCOE        CLEAR     76  73  88 SE6       29.92S
FARIBAULT      PTCLDY    77  72  83 SE9       29.96S
OWATONNA       PTCLDY    75  72  88 SE8       29.98S
WASECA         CLEAR     72  70  94 SE7       29.97S
ALBERT LEA     PTCLDY    75  72  88 S6        29.98R
$$
MNZ078>079-086>088-094>096-050800-
   Southeast Minnesota

CITY           SKY/WX    TMP DP  RH WIND       PRES   REMARKS
ROCHESTER      MOCLDY    73  70  90 S8        30.01S
RED WING       CLOUDY    77  72  83 E5        29.96R
STANTON        MOCLDY    78  70  76 SE9       29.95S
DODGE CENTER   MOCLDY    73  72  94 CALM      30.00S
WINONA         DRIZZLE   73  72  94 CALM      30.00S
AUSTIN         PTCLDY    75  72  88 CALM      29.99S
PRESTON        CLOUDY    74  69  85 SE5       30.02S
$$
ABBREVIATIONS USED IN REMARKS
   TC - TEMPERATURES IN CELSIUS
  WCI - WIND CHILL INDEX
   HX - HEAT INDEX
  VSB - VISIBILITY
$$


USA.gov is the U.S. government's official web portal to all federal, state and local government web resources and services.